Poplar Bluff, MO

8:33 AM CDT on July 18, 2019 (GMT -0500)
Poplar Bluff Municipal

Weather History for KPOF - May, 2019

Change the Weather History Date:

Saturday, May 18, 2019

  Actual Average Record
Temperature  
Mean Temperature 74 °F -  
Max Temperature 87 °F 80 °F 94 °F (1944)
Min Temperature 63 °F 55 °F 39 °F (2002)
Cooling Degree Days 10    
Growing Degree Days 24 (Base 50)    
Moisture  
Dew Point 64 °F    
Average Humidity 74    
Maximum Humidity 100    
Minimum Humidity 40    
Precipitation  
Precipitation 0.10 in - - ()
Sea Level Pressure  
Sea Level Pressure 29.81 in    
Wind  
Wind Speed 9 mph (SSW)    
Max Wind Speed 23 mph    
Max Gust Speed 39 mph    
Visibility 8 miles    
Events Rain    
Averages and records for this station are not official NWS values.
T = Trace of Precipitation, MM = Missing Value Source: NWS Daily Summary

Daily Weather History Graph

Daily Weather History Graph

Search for Another Location

Airport or City:

Astronomy

May. 18, 2019 Rise Set
Actual Time 5:51 AM CDT 8:04 PM CDT
Civil Twilight 5:22 AM CDT 8:33 PM CDT
Nautical Twilight 4:46 AM CDT 9:09 PM CDT
Astronomical Twilight 4:08 AM CDT 9:48 PM CDT
Moon 8:01 PM CDT 5:55 AM CDT
Length of Visible Light 15h 10m
Length of Day
14h 12m
Full, 100% of the Moon is Illuminated
May 18
Full
May 18
Full
May 26
Last Quarter
Jun 3
New
Jun 10
First Quarter

Hourly Weather History & Observations

Time (CDT) Temp. Heat Index Dew Point Humidity Pressure Visibility Wind Dir Wind Speed Gust Speed Precip Events Conditions
12:53 AM 72.0 °F - 62.1 °F 71% 29.85 in 10.0 mi South 6.9 mph - N/A   Clear
1:53 AM 71.1 °F - 63.0 °F 75% 29.84 in 10.0 mi South 6.9 mph - N/A   Clear
2:53 AM 70.0 °F - 63.0 °F 78% 29.85 in 10.0 mi South 6.9 mph - N/A   Clear
3:53 AM 66.9 °F - 63.0 °F 87% 29.85 in 10.0 mi South 3.5 mph - N/A   Clear
4:53 AM 64.0 °F - 62.1 °F 93% 29.86 in 8.0 mi Calm Calm - N/A   Clear
5:53 AM 63.0 °F - 62.1 °F 97% 29.87 in 7.0 mi Calm Calm - N/A   Clear
6:53 AM 66.0 °F - 64.0 °F 93% 29.88 in 6.0 mi Calm Calm - N/A   Clear
8:53 AM 75.0 °F - 64.9 °F 71% 29.90 in 10.0 mi SSW 9.2 mph 19.6 mph N/A   Clear
9:53 AM 78.1 °F - 66.9 °F 68% 29.88 in 10.0 mi SSW 12.7 mph - N/A   Clear
11:53 AM 82.9 °F 84.6 °F 64.9 °F 54% 29.85 in 10.0 mi South 13.8 mph 27.6 mph N/A   Clear
12:53 PM 84.0 °F 84.4 °F 61.0 °F 46% 29.83 in 10.0 mi South 18.4 mph 28.8 mph N/A   Clear
1:53 PM 84.9 °F 85.4 °F 62.1 °F 46% 29.80 in 10.0 mi South 15.0 mph 28.8 mph N/A   Clear
2:53 PM 86.0 °F 86.1 °F 61.0 °F 43% 29.78 in 10.0 mi South 12.7 mph 26.5 mph N/A   Clear
3:53 PM 86.0 °F 85.4 °F 59.0 °F 40% 29.77 in 10.0 mi South 17.3 mph 28.8 mph N/A   Clear
4:53 PM 84.9 °F 84.8 °F 60.1 °F 43% 29.75 in 10.0 mi South 16.1 mph 29.9 mph N/A   Scattered Clouds
5:53 PM 84.9 °F 85.4 °F 62.1 °F 46% 29.73 in 10.0 mi South 15.0 mph 26.5 mph N/A   Mostly Cloudy
6:53 PM 82.0 °F 82.7 °F 61.0 °F 49% 29.72 in 10.0 mi South 11.5 mph - N/A   Clear
7:43 PM 75.0 °F - 64.0 °F 69% 29.79 in 2.0 mi WSW 23.0 mph 39.1 mph 0.00 in Rain Rain
7:50 PM 69.8 °F - 66.2 °F 88% 29.80 in 1.2 mi WSW 10.4 mph 39.1 mph 0.15 in Rain Heavy Rain
8:01 PM 66.2 °F - 66.2 °F 100% 29.77 in 2.0 mi NW 10.4 mph 18.4 mph N/A Rain Light Rain
8:04 PM 66.9 °F - 66.0 °F 97% 29.77 in 4.0 mi NW 9.2 mph - 0.08 in Rain Light Rain
8:53 PM 66.9 °F - 66.9 °F 100% 29.78 in 10.0 mi South 3.5 mph - 0.08 in   Mostly Cloudy
9:53 PM 66.9 °F - 66.0 °F 97% 29.80 in 8.0 mi South 5.8 mph - 0.02 in Rain Light Rain
10:53 PM 66.9 °F - 66.9 °F 100% 29.82 in 10.0 mi South 10.4 mph - 0.00 in   Overcast
11:53 PM 66.0 °F - 64.9 °F 96% 29.77 in 10.0 mi South 6.9 mph - 0.00 in Rain Light Rain